Weather History for Elmira, NY

Change the Weather History Date:

Tuesday, February 26, 2013

  Actual Average Record
Temperature  
Mean Temperature 29 °F -  
Max Temperature 41 °F 35 °F 65 °F (1957)
Min Temperature 17 °F 18 °F -3 °F (1963)
Degree Days  
Heating Degree Days 36    
Moisture  
Dew Point 26 °F    
Average Humidity 78    
Maximum Humidity 92    
Minimum Humidity 47    
Precipitation  
Precipitation 0.42 in - - ()
Sea Level Pressure  
Sea Level Pressure 30.02 in    
Wind  
Wind Speed 5 mph (East)    
Max Wind Speed 21 mph    
Max Gust Speed 26 mph    
Visibility 6 miles    
Events Rain , Snow    
Averages and records for this station are not official NWS values.
T = Trace of Precipitation, MM = Missing Value Source: NWS Daily Summary

Daily Weather History Graph

Daily Weather History Graph

Search for Another Location

Airport:

Trip Planner

Search our weather history database for the weather conditions in past years. The results will help you decide how hot, cold, wet, or windy it might be!

Date:

Astronomy

Feb. 26, 2013 Rise Set
Actual Time 6:47 AM EST 5:54 PM EST
Civil Twilight 6:18 AM EST 6:22 PM EST
Nautical Twilight 5:46 AM EST 6:54 PM EST
Astronomical Twilight 5:14 AM EST 7:27 PM EST
Moon 7:11 PM EST (2/26) 6:46 AM EST (2/26)
Length of Visible Light 12h 03m
Length of Day
11h 07m
Full, 99% of the Moon is Illuminated
Feb 26
Full
Mar 4
Last Quarter
Mar 11
New
Mar 19
First Quarter
Mar 27
Full

Hourly Weather History & Observations

Time (EST) Temp. Windchill Dew Point Humidity Pressure Visibility Wind Dir Wind Speed Gust Speed Precip Events Conditions
12:53 AM 19.9 °F - 17.1 °F 89% 30.25 in 9.0 mi Calm Calm - N/A   Clear
1:53 AM 19.9 °F - 17.1 °F 89% 30.25 in 8.0 mi Calm Calm - N/A   Clear
2:53 AM 19.0 °F - 14.0 °F 81% 30.25 in 10.0 mi Calm Calm - N/A   Clear
3:53 AM 19.0 °F - 16.0 °F 88% 30.23 in 9.0 mi Calm Calm - N/A   Clear
4:53 AM 18.0 °F - 14.0 °F 84% 30.23 in 8.0 mi Calm Calm - N/A   Clear
5:53 AM 17.1 °F 10.0 °F 14.0 °F 88% 30.23 in 9.0 mi East 4.6 mph - N/A   Clear
6:53 AM 17.1 °F 11.7 °F 14.0 °F 88% 30.22 in 8.0 mi ENE 3.5 mph - N/A   Clear
7:53 AM 21.9 °F - 18.0 °F 85% 30.23 in 7.0 mi Calm Calm - N/A   Clear
8:53 AM 27.0 °F - 24.1 °F 89% 30.25 in 6.0 mi Calm Calm - N/A   Clear
9:53 AM 33.1 °F 30.0 °F 25.0 °F 72% 30.22 in 10.0 mi Variable 3.5 mph - N/A   Clear
10:53 AM 36.0 °F 33.3 °F 24.1 °F 62% 30.19 in 10.0 mi Variable 3.5 mph - N/A   Clear
11:53 AM 39.9 °F 35.1 °F 25.0 °F 55% 30.17 in 10.0 mi SE 6.9 mph 16.1 mph N/A   Scattered Clouds
12:53 PM 41.0 °F 31.6 °F 24.1 °F 51% 30.11 in 10.0 mi ESE 20.7 mph 26.5 mph N/A   Clear
1:53 PM 41.0 °F 33.1 °F 23.0 °F 49% 30.09 in 10.0 mi SSE 15.0 mph 23.0 mph N/A   Clear
2:53 PM 41.0 °F 35.2 °F 23.0 °F 49% 30.07 in 10.0 mi SE 9.2 mph 17.3 mph N/A   Clear
3:53 PM 41.0 °F 35.8 °F 21.9 °F 47% 30.03 in 10.0 mi ESE 8.1 mph - N/A   Mostly Cloudy
4:53 PM 41.0 °F 38.0 °F 23.0 °F 49% 30.01 in 10.0 mi ESE 4.6 mph - N/A   Overcast
5:53 PM 39.9 °F 33.4 °F 24.1 °F 53% 30.00 in 10.0 mi ESE 10.4 mph - N/A   Overcast
6:44 PM 37.4 °F 30.8 °F 28.4 °F 70% 29.97 in 4.0 mi ESE 9.2 mph - 0.00 in Snow Light Snow
6:53 PM 36.0 °F 29.6 °F 30.0 °F 79% 30.00 in 2.0 mi ESE 8.1 mph - 0.01 in Snow Light Snow
7:06 PM 35.6 °F 29.9 °F 30.2 °F 81% 29.96 in 4.0 mi East 6.9 mph - 0.01 in Snow Light Snow
7:22 PM 35.6 °F 27.5 °F 30.2 °F 81% 29.95 in 3.0 mi East 11.5 mph 18.4 mph 0.01 in Snow Light Snow
7:39 PM 33.8 °F 27.0 °F 30.2 °F 87% 29.93 in 3.0 mi ENE 8.1 mph 21.9 mph 0.05 in Rain Rain
7:45 PM 33.8 °F 26.4 °F 30.2 °F 87% 29.92 in 4.0 mi ENE 9.2 mph - 0.06 in Rain Light Freezing Rain
7:53 PM 34.0 °F 26.0 °F 30.9 °F 89% 29.94 in 4.0 mi East 10.4 mph 19.6 mph 0.08 in Rain Light Freezing Rain
8:09 PM 33.8 °F 25.8 °F 30.2 °F 87% 29.89 in 5.0 mi East 10.4 mph 18.4 mph 0.01 in Rain Light Rain
8:14 PM 35.6 °F 27.5 °F 30.2 °F 81% 29.89 in 6.0 mi East 11.5 mph 18.4 mph 0.01 in Rain Light Freezing Rain
8:26 PM 35.6 °F 25.2 °F 30.2 °F 81% 29.89 in 6.0 mi ESE 18.4 mph 25.3 mph 0.02 in Rain Light Freezing Rain
8:53 PM 35.1 °F 24.8 °F 30.0 °F 82% 29.91 in 6.0 mi ESE 17.3 mph 24.2 mph 0.03 in Rain Light Freezing Rain
9:02 PM 35.6 °F 27.1 °F 30.2 °F 81% 29.88 in 6.0 mi East 12.7 mph 26.5 mph 0.01 in Rain Light Freezing Rain
9:53 PM 34.0 °F 23.4 °F 30.0 °F 85% 29.88 in 4.0 mi East 17.3 mph 24.2 mph 0.09 in Rain Light Freezing Rain
10:06 PM 33.8 °F 24.8 °F 30.2 °F 87% 29.85 in 5.0 mi East 12.7 mph 21.9 mph 0.02 in Snow Light Snow
10:47 PM 33.8 °F 29.6 °F 30.2 °F 87% 29.87 in 1.8 mi Variable 4.6 mph - 0.11 in Snow Light Snow
10:48 PM 34.0 °F 28.8 °F 30.0 °F 85% 29.90 in 1.8 mi East 5.8 mph - 0.11 in Snow Light Snow
10:56 PM 33.8 °F 27.0 °F 30.2 °F 87% 29.86 in 1.5 mi East 8.1 mph - 0.01 in Snow Light Snow
11:03 PM 33.8 °F 27.0 °F 30.2 °F 87% 29.85 in 1.0 mi ENE 8.1 mph - 0.02 in Snow Light Snow
11:07 PM 33.8 °F 27.0 °F 30.2 °F 87% 29.84 in 0.8 mi NE 8.1 mph - 0.03 in Snow Light Snow
11:43 PM 33.8 °F 27.0 °F 30.2 °F 87% 29.83 in 1.0 mi NE 8.1 mph - 0.09 in Snow Light Snow
11:53 PM 33.1 °F 25.5 °F 30.9 °F 92% 29.84 in 1.0 mi NE 9.2 mph - 0.10 in Snow Light Snow